FENGYUN 3G

Last updated on Wed Sep 23 2026 00:03:10 GMT+0000 (Coordinated Universal Time)

1 56232U 23055A 26265.38328927 .00018582 00000+0 28839-3 0 9992 2 56232 49.9912 204.8141 0011249 66.4368 293.7780 15.53913118195114
UTC large
Height (km)
Speed (km/s)
/
Latitude / Longitude
Inclination (degrees)
Orbital Period (minutes)
Azimuth
Elevation
Range (km)
Doppler Factor

Next 0 passes for location: London (51.5072 / 0.1276)

No passes found over London.
FENGYUN 3G